RH
66 74 79 81 82 83 84 84 80 74 66 62 59 58 59 64 66 65 60 55 48 42 36 33 29 26 21 19 19 21 24 26 27 28 30 32 33 33 33 32 30 27 25 23 23 24 24 23 23 24 25 26 27 29 32 35 38 41 43 44 42 39 34 30 28 28 32 38 41 44 46 49 52 56 58 61 65 70 76 84 88 90 92 90 89 86
48 60 70 73 75 77 80 80 76 70 64 60 56 55 57 70 78 79 72 65 57 48 40 34 30 27 24 21 20 21 23 25 26 27 28 30 31 32 33 32 31 29 27 24 22 20 19 18 19 20 21 23 27 32 37 41 43 45 48 49 50 50 46 40 36 34 38 43 45 46 47 48 50 52 54 57 60 66 73 79 83 85 86 86 86 85
32 43 56 64 69 72 74 76 74 70 68 64 60 59 65 80 87 87 82 74 65 55 45 37 32 28 25 23 22 21 22 24 26 26 27 28 29 30 32 32 32 30 28 26 24 22 20 18 17 17 18 24 30 37 43 47 49 51 52 54 56 57 56 51 47 46 48 51 52 52 51 52 52 53 53 55 58 62 68 74 76 78 79 79 79 80
24 28 40 54 62 68 70 74 77 78 80 75 72 73 81 90 92 89 86 79 70 60 49 40 34 29 26 24 22 21 21 22 24 25 26 26 27 28 29 30 31 30 30 28 26 24 22 20 17 16 18 26 34 42 48 52 54 56 57 58 60 60 60 58 57 58 60 61 61 60 58 56 56 55 54 54 56 60 64 68 71 72 73 73 74 75
25 23 27 43 56 64 68 74 80 86 90 87 86 88 92 93 92 88 85 78 69 60 49 42 35 30 26 24 22 20 20 20 22 23 24 25 26 26 27 28 29 30 30 29 28 26 24 22 19 17 19 26 36 44 51 56 58 60 60 61 62 63 64 64 65 67 69 69 68 67 64 62 60 58 56 54 55 58 62 66 69 70 70 70 70 72
29 24 24 34 46 58 71 77 83 88 90 92 93 94 95 95 93 89 84 76 66 56 46 40 34 29 26 23 20 19 17 18 19 21 22 24 24 24 25 26 27 28 28 29 29 28 26 24 21 18 17 25 35 45 53 57 59 60 61 62 63 64 66 69 72 74 74 74 74 73 70 67 64 61 59 57 56 58 62 68 72 73 72 72 71 71
27 24 21 26 36 50 70 80 86 89 89 91 93 95 96 96 94 90 85 75 64 54 44 39 34 30 26 23 20 18 15 15 16 17 20 22 23 24 24 24 25 26 27 28 28 28 27 26 24 20 17 24 34 44 52 56 58 60 62 63 64 66 68 72 75 77 78 80 79 78 75 72 68 66 64 63 62 63 67 73 76 77 76 74 72 72
22 18 16 20 28 42 61 77 86 90 89 90 91 93 96 96 95 92 88 79 68 57 48 43 38 33 29 26 24 20 15 13 13 14 16 18 20 22 23 23 24 24 25 26 26 27 27 26 24 22 20 25 34 43 51 56 61 65 70 71 72 72 74 74 74 77 81 83 84 82 80 76 72 69 68 70 70 70 73 78 80 81 79 77 75 74
20 16 13 15 22 34 50 68 81 89 90 89 89 90 93 95 95 94 92 84 75 65 56 48 42 37 32 31 28 23 17 13 12 11 12 15 18 20 22 23 23 23 24 24 25 26 26 26 24 24 24 28 36 44 53 60 68 76 83 85 84 84 85 80 77 76 79 83 84 85 84 80 77 74 74 76 77 77 78 82 84 84 82 81 80 79
26 23 19 17 19 26 37 55 71 83 88 88 88 87 89 92 94 95 93 88 81 73 63 55 48 42 39 36 30 24 17 14 12 10 10 12 15 18 22 23 23 23 22 22 23 24 25 25 24 24 25 31 40 48 56 65 74 83 90 92 93 94 95 90 84 78 76 80 83 85 85 85 83 81 81 83 83 83 84 87 89 89 89 89 88 88
37 38 36 27 22 21 25 38 54 70 82 84 83 81 80 85 90 94 93 90 86 79 70 64 58 54 46 39 30 23 16 14 13 12 12 12 14 17 20 22 23 23 22 22 22 23 24 24 24 25 26 33 42 53 61 69 76 82 87 90 93 96 98 96 92 87 83 82 84 86 87 89 89 88 88 89 89 90 91 93 94 95 96 96 96 94
53 62 62 50 37 26 19 24 36 53 71 77 77 75 73 77 84 92 94 92 88 82 76 72 68 63 52 40 30 22 18 17 17 17 17 16 17 18 20 22 22 22 22 22 22 23 24 24 24 26 26 34 43 55 66 73 77 80 81 84 88 92 96 97 97 96 95 92 90 89 90 92 92 92 94 94 95 96 96 98 98 99 99 99 98 97
69 82 84 74 59 40 21 18 24 37 58 70 74 73 71 74 80 88 93 92 89 84 78 76 74 69 57 43 33 27 24 24 24 24 24 24 22 21 21 22 22 22 22 22 23 24 24 25 26 27 29 33 42 54 69 77 80 80 77 79 84 88 93 97 99 99 99 98 96 94 93 94 94 96 98 98 99 99 99 99 99 99 99 98 98 98
79 89 90 90 76 55 33 21 17 23 41 62 72 74 73 76 79 84 91 92 90 85 80 78 76 73 65 53 46 41 38 37 36 35 35 33 31 29 26 25 24 24 23 22 22 23 24 26 28 31 33 36 42 52 68 77 80 79 78 80 83 87 92 96 98 99 99 99 99 98 98 97 97 98 99 99 100 100 100 100 100 99 99 98 98 97
84 88 90 89 79 64 44 28 18 15 25 49 66 76 78 80 81 84 90 92 91 88 85 89 88 82 76 67 62 58 52 51 49 47 48 50 48 44 38 33 30 27 26 24 24 24 24 28 31 34 38 42 46 52 65 74 78 80 80 82 84 87 92 95 97 98 98 98 99 99 100 99 99 99 99 99 100 100 99 99 99 99 99 98 98 97
86 85 86 84 74 61 48 38 30 24 18 33 53 72 83 85 86 86 90 93 93 92 89 93 95 93 88 78 74 72 68 68 64 60 63 70 70 64 52 46 40 36 32 29 27 27 28 31 35 39 44 47 49 54 64 73 78 81 85 87 88 89 90 93 95 96 97 97 98 98 99 100 100 100 100 100 99 99 99 99 99 99 99 98 98 97
84 82 80 74 65 56 46 42 38 30 17 21 36 56 74 80 84 86 88 92 95 95 92 94 95 96 96 90 85 83 86 86 83 80 80 85 86 82 71 62 56 50 45 46 44 41 40 42 45 49 54 54 55 58 65 73 79 84 88 90 92 92 91 92 92 92 94 95 96 97 98 98 99 99 99 99 99 99 99 99 99 99 99 98 98 97
84 83 80 74 65 56 47 44 40 32 17 15 24 39 56 67 75 81 85 88 92 95 94 94 93 94 95 92 89 88 92 95 94 92 92 94 95 94 90 83 75 70 70 76 76 71 68 68 70 71 68 65 64 64 68 74 78 82 86 89 90 90 90 89 89 88 89 90 92 93 94 95 96 98 98 99 99 99 99 99 99 99 99 98 98 98
83 82 80 74 66 58 50 46 40 32 19 14 16 26 40 55 66 76 81 88 91 92 93 94 92 91 90 90 88 87 92 96 98 98 98 98 98 97 96 96 95 94 94 96 96 94 91 90 90 88 84 80 78 76 75 74 75 76 77 80 83 84 85 84 84 82 82 82 83 84 85 88 90 92 95 97 98 98 98 98 99 99 99 98 98 97
76 75 72 66 60 54 48 45 40 33 23 16 14 19 30 46 60 71 77 89 92 92 90 93 92 90 88 90 90 90 93 95 97 98 99 99 99 98 98 99 99 99 100 100 99 98 97 96 96 96 94 93 91 89 86 84 82 81 80 80 82 84 87 87 86 85 84 82 83 85 86 88 90 94 96 97 97 98 98 98 98 98 98 98 98 98
64 62 60 57 52 46 41 40 38 34 26 19 16 19 26 42 57 69 76 88 92 93 92 92 93 91 85 85 88 90 94 95 96 97 99 99 99 99 98 98 98 99 100 100 100 99 99 98 98 98 98 98 98 97 95 95 95 95 94 94 96 96 96 97 97 97 95 96 96 95 96 97 98 98 98 98 98 98 98 98 98 98 98 97 97 97
61 58 56 50 44 38 32 31 32 31 27 23 19 19 24 39 54 68 77 86 91 93 92 92 93 92 88 85 85 88 91 94 94 94 98 98 98 98 99 98 97 97 98 99 99 99 99 98 98 98 98 98 98 98 98 98 98 98 98 98 98 98 99 99 99 99 98 98 98 98 98 98 98 98 98 98 98 98 97 97 97 96 96 96 96 96
70 65 59 49 40 31 24 22 22 24 26 24 22 20 24 36 52 67 79 85 88 90 93 92 93 93 91 88 86 86 88 91 92 93 96 98 98 98 98 97 97 97 97 97 97 98 99 98 98 98 98 98 98 98 98 98 98 98 98 98 98 98 98 98 98 98 98 98 98 98 97 97 97 97 97 97 96 96 96 96 95 95 94 94 93 93
82 76 67 52 40 30 23 20 19 20 24 25 24 24 26 35 49 64 76 81 84 86 90 92 93 92 92 92 90 88 86 88 90 92 94 96 97 98 97 96 96 97 97 96 96 96 97 98 98 98 98 98 97 97 97 97 97 97 97 97 97 97 97 97 97 97 97 97 97 96 96 96 96 96 96 95 95 94 94 93 92 92 91 90 89 88
88 84 76 58 45 39 39 39 36 32 27 27 28 28 29 36 47 60 71 76 78 80 84 90 92 93 92 92 92 90 87 85 86 90 92 95 96 96 96 96 96 97 97 96 96 96 96 97 97 97 97 97 96 96 96 96 96 96 96 96 96 96 96 96 96 96 96 96 96 95 95 94 94 93 92 92 90 89 89 88 88 87 86 85 84 84
89 86 80 62 54 54 66 74 72 62 48 38 34 34 37 42 49 58 67 71 73 74 76 86 92 94 93 92 92 90 88 84 83 85 90 94 95 95 96 96 96 96 97 97 96 96 96 96 97 97 97 96 95 95 94 94 94 94 94 94 94 94 94 94 94 94 94 94 93 92 92 90 88 86 82 80 78 77 76 77 77 77 76 76 77 78
90 87 81 67 61 66 83 89 90 87 77 60 48 42 44 50 55 60 66 68 70 74 79 88 92 94 94 92 92 90 89 84 82 82 86 92 95 95 96 96 96 96 97 96 96 96 96 96 96 97 96 95 94 93 92 92 90 90 90 90 90 90 90 90 90 90 90 90 88 86 82 78 74 68 62 60 58 58 58 58 59 60 61 64 66 69
90 88 84 71 66 71 89 90 91 92 91 82 69 56 48 54 60 64 68 71 76 81 88 92 94 94 93 91 90 90 90 86 83 80 80 89 93 95 95 95 96 96 96 96 96 96 96 96 96 96 96 94 92 90 89 86 83 81 80 79 79 79 79 80 80 81 80 78 76 71 66 58 52 46 42 41 41 41 40 40 40 42 44 48 51 53
90 90 87 76 70 73 88 89 90 91 91 90 84 72 55 56 61 67 72 76 83 89 92 92 93 93 92 89 89 90 90 88 84 80 76 83 89 93 94 94 94 95 95 95 95 95 95 95 95 95 95 94 92 90 86 81 76 72 69 68 67 66 65 64 64 63 62 59 56 52 46 40 35 32 30 32 32 32 31 30 30 31 33 36 38 39
90 90 89 82 76 75 85 88 90 91 90 90 89 84 67 58 60 68 76 80 87 91 90 90 92 93 92 90 90 92 92 90 87 82 76 78 83 88 92 92 94 94 94 95 95 94 94 94 94 94 93 92 92 90 87 83 78 74 69 66 62 58 54 51 48 46 44 41 39 37 34 32 30 28 29 30 30 30 29 29 30 31 32 33 34 34
90 90 90 88 83 80 82 86 89 90 92 89 89 88 80 67 64 68 76 80 86 91 90 89 90 92 92 92 92 94 94 94 90 85 78 78 78 81 85 88 90 93 94 93 93 93 93 93 92 92 91 90 90 89 88 87 85 82 79 74 68 61 54 49 44 40 37 35 34 34 34 32 31 30 30 30 30 30 31 32 33 34 35 35 35 35
90 90 90 90 88 86 84 88 89 90 91 89 88 87 88 79 73 70 76 78 84 90 93 90 90 92 92 92 93 94 94 93 92 88 82 81 80 79 79 82 87 90 92 92 90 90 90 89 89 88 88 87 86 86 86 87 87 86 86 83 78 72 65 58 50 44 40 38 38 38 37 35 34 32 32 32 32 32 33 34 36 37 37 37 37 37
90 90 91 90 90 89 88 90 90 90 90 90 88 86 88 87 82 76 76 76 80 86 93 92 92 92 92 93 93 93 93 91 89 86 84 83 83 82 80 81 86 90 90 89 88 86 84 82 81 81 81 81 80 79 79 80 80 81 82 81 79 76 71 65 58 52 46 44 42 40 40 38 36 35 34 34 35 35 36 38 39 40 40 40 40 39
90 90 90 91 90 90 90 90 90 90 90 90 89 88 87 90 88 84 79 78 77 81 92 92 92 92 93 93 93 93 93 92 89 86 84 85 86 85 83 84 87 89 89 86 84 81 78 74 72 70 70 70 70 68 66 67 68 70 72 72 71 69 66 61 57 52 49 47 45 43 42 40 39 39 39 39 40 40 42 42 43 44 44 44 43 43
89 90 90 90 90 90 90 90 90 90 90 90 90 89 88 90 92 90 88 86 84 84 90 92 92 92 92 93 93 94 93 94 92 90 89 89 89 89 87 87 88 88 87 83 79 75 71 67 64 61 58 58 58 57 54 54 54 56 58 59 59 58 56 53 51 50 50 49 48 46 45 44 44 44 45 45 46 47 48 49 50 50 50 49 48 48
89 89 90 90 90 90 90 90 90 90 90 90 90 90 89 90 92 92 92 92 90 89 90 91 92 92 92 92 92 92 93 94 94 94 93 93 92 92 90 88 87 86 84 80 76 72 67 64 61 58 54 51 49 48 46 45 44 44 45 47 48 49 50 49 49 50 51 51 50 50 50 50 50 51 52 54 54 56 56 57 57 57 57 55 53 52
90 90 90 90 90 90 90 90 90 90 89 90 90 90 90 91 92 92 92 92 92 90 90 90 90 92 92 90 90 90 91 92 94 94 94 94 93 92 89 87 85 83 80 77 74 71 67 64 61 58 55 50 46 43 42 42 40 39 39 41 44 46 48 50 51 53 54 54 54 54 55 56 57 58 60 61 62 63 64 64 64 64 62 60 58 55
90 90 90 90 90 90 90 90 90 90 89 89 90 90 90 92 92 92 92 92 92 91 90 90 89 90 91 90 90 90 90 92 92 93 94 93 92 90 88 86 84 81 78 76 73 70 67 65 63 60 58 53 48 44 42 42 40 40 40 42 45 48 51 53 56 58 60 60 60 60 61 62 64 66 67 68 69 69 70 70 70 68 66 64 61 58
90 90 90 90 89 89 89 90 90 90 90 90 90 90 90 92 92 92 92 92 92 92 91 90 90 90 90 90 91 92 92 92 92 92 92 92 92 90 87 85 83 80 76 74 70 68 65 63 61 60 57 54 50 48 46 45 44 44 46 49 52 54 57 60 62 64 66 66 66 66 67 68 70 72 73 74 74 74 74 74 74 72 70 67 65 62
89 89 90 90 89 89 89 90 90 91 92 91 90 90 91 92 92 92 92 92 92 92 92 92 91 90 90 90 90 92 92 92 92 92 92 92 92 91 89 87 84 80 74 70 66 63 60 58 56 54 53 50 48 47 47 48 48 50 53 57 60 62 66 68 70 72 74 74 73 73 73 74 74 76 76 77 77 77 77 77 76 74 72 70 68 66
89 89 89 89 89 89 88 88 90 90 92 92 92 92 92 92 92 92 90 90 92 92 92 92 92 92 90 90 91 92 92 92 92 92 92 92 92 92 91 89 86 81 74 68 64 61 58 56 55 53 51 50 49 49 49 50 53 56 60 63 66 70 74 76 78 78 80 79 78 78 77 77 77 78 79 80 80 80 79 78 77 76 74 72 71 70
88 89 89 89 89 89 88 87 88 89 90 91 92 91 91 91 92 92 91 90 90 92 92 92 92 92 91 90 91 92 92 92 92 92 92 92 92 92 91 90 88 84 78 72 67 64 62 61 60 59 58 57 56 56 57 58 61 64 68 71 74 78 81 82 82 83 84 84 83 82 81 80 80 81 82 82 82 82 80 79 78 78 78 77 76 75
88 88 89 89 89 89 88 87 87 88 89 90 90 90 90 90 90 91 91 90 90 90 92 92 92 92 92 91 91 91 91 92 92 92 91 90 90 91 91 91 90 88 84 79 74 72 72 72 71 71 71 70 70 70 70 71 73 76 78 80 83 85 86 86 86 87 88 88 88 87 86 86 85 85 86 85 85 84 84 83 82 82 83 82 80 79
87 88 88 88 88 88 88 88 87 87 87 89 90 90 90 90 90 90 90 90 91 91 92 92 92 92 92 91 91 91 90 91 91 91 90 90 90 90 90 90 90 90 90 87 84 83 82 82 83 83 84 83 83 84 84 84 85 86 87 88 90 90 91 91 91 92 92 91 92 92 92 92 91 91 90 89 89 88 88 87 86 85 84 83 82 81
86 87 88 88 88 88 88 88 88 88 87 87 88 88 89 89 90 90 91 91 92 92 91 90 90 90 90 90 90 91 90 90 90 90 90 90 90 89 88 88 88 89 90 90 89 88 88 89 89 90 90 90 90 90 92 92 92 91 91 92 92 92 92 92 92 92 92 92 92 92 92 92 91 90 90 90 89 89 88 87 85 84 83 82 81 80
84 85 87 88 88 88 88 88 88 88 87 87 87 87 88 88 89 90 91 92 92 92 91 90 90 90 90 89 89 90 90 90 90 90 90 90 90 89 88 87 87 87 88 89 90 90 90 90 91 91 92 92 92 92 92 92 92 92 92 92 92 92 92 92 92 92 92 92 92 91 90 89 88 87 86 87 86 86 85 84 83 82 81 80 79 78
83 84 85 86 87 88 88 88 88 88 88 88 87 87 87 88 89 90 90 91 92 92 92 90 90 90 90 89 88 87 88 89 90 90 90 90 90 90 90 88 88 88 88 88 89 90 90 90 90 90 91 91 92 92 92 92 92 92 92 92 92 92 92 92 91 91 90 90 90 90 88 86 84 84 84 84 83 82 82 81 81 80 80 78 76 75
82 82 83 84 86 87 88 88 88 88 89 88 88 88 87 88 88 89 90 90 91 91 91 90 90 90 90 90 89 87 86 86 87 88 89 90 90 90 90 90 89 89 88 89 89 90 90 90 90 90 90 91 92 92 92 92 92 92 92 92 92 91 90 90 90 90 90 89 88 87 86 84 82 82 82 81 80 79 78 78 78 77 76 75 74 73
80 81 82 83 84 85 86 88 88 88 88 89 89 88 88 88 88 89 90 90 90 90 90 90 91 90 90 90 90 89 87 86 84 84 85 86 88 89 90 90 90 89 89 89 89 89 89 89 89 89 90 91 92 92 92 92 92 92 92 92 91 90 90 90 90 89 88 87 86 85 83 82 80 80 79 77 75 74 73 72 72 71 71 70 70 69
79 80 80 81 82 84 85 86 87 88 88 88 89 88 88 88 88 88 89 90 90 90 90 90 90 91 91 90 90 90 90 88 86 84 83 84 85 87 89 90 90 90 90 90 89 88 88 88 88 88 89 90 90 91 92 91 91 91 91 90 90 90 90 90 89 88 86 86 85 84 82 81 79 78 76 73 70 68 66 65 64 64 63 63 63 63
77 78 79 80 81 82 83 84 86 87 88 88 88 88 88 88 88 88 88 89 90 90 90 90 90 90 91 90 90 90 90 90 89 88 84 84 84 85 87 90 90 91 90 90 90 89 87 87 87 87 88 88 89 89 90 90 90 90 90 90 90 89 88 89 88 88 86 85 84 83 81 80 78 76 73 70 66 64 62 60 58 58 58 58 58 58
Wind_Speed
50 49 46 44 42 40 38 37 37 38 39 38 37 36 34 33 33 34 35 35 35 37 39 40 41 42 43 44 44 44 44 45 45 45 45 45 44 44 43 42 42 42 42 42 42 43 43 44 46 47 48 48 49 49 48 48 47 46 45 44 44 45 45 45 45 45 44 44 45 45 44 44 43 42 41 39 37 36 35 36 36 35 33 32 30 28
50 50 48 47 46 44 41 39 38 37 37 36 35 35 34 32 31 32 32 32 32 34 36 39 41 42 43 43 44 44 44 44 45 45 45 45 45 44 44 43 43 42 42 42 42 42 43 43 44 45 46 46 47 47 47 46 46 45 45 44 44 44 44 44 44 44 44 45 46 46 45 44 44 43 42 41 39 37 37 38 38 38 37 35 34 32
47 49 49 49 47 46 43 40 38 36 34 33 33 33 32 31 30 31 31 30 30 32 34 36 39 41 42 43 44 44 44 45 45 45 45 45 45 45 45 44 43 43 43 42 42 42 42 42 42 43 44 44 45 45 45 45 45 45 45 45 44 44 44 44 44 44 45 46 46 46 46 45 44 44 43 42 40 39 39 39 40 40 39 38 37 36
44 46 48 49 48 47 44 40 36 34 32 31 31 31 30 30 30 31 30 29 29 30 32 34 37 39 41 43 44 44 45 45 45 45 45 45 46 45 45 45 44 44 43 42 42 42 42 42 42 42 42 43 43 44 44 44 45 45 45 45 45 45 44 44 44 44 45 46 47 46 46 45 45 44 44 43 42 41 40 41 41 41 40 39 39 38
41 43 46 47 48 47 44 40 36 33 31 30 30 29 28 28 29 30 29 28 28 29 31 33 35 38 40 42 44 45 45 46 46 46 46 46 46 45 45 45 45 44 44 43 42 42 42 42 42 42 42 42 43 43 43 44 44 45 45 45 45 45 44 44 44 45 46 47 47 47 46 46 45 45 45 44 43 42 42 42 42 41 40 40 40 40
39 41 43 46 48 47 45 41 38 35 33 31 30 29 26 26 27 28 27 27 28 28 29 31 33 36 39 41 43 45 46 46 46 46 46 46 46 45 45 45 45 44 44 43 43 43 42 42 42 41 42 42 42 43 43 44 45 45 45 45 45 45 45 44 45 46 47 47 47 47 46 46 46 45 45 45 45 43 42 43 42 42 41 40 41 41
37 39 41 44 47 48 46 43 40 37 35 34 31 28 24 22 23 25 26 26 27 27 28 30 32 34 37 39 42 44 45 46 47 47 46 46 46 46 45 45 45 45 44 44 43 43 43 42 42 41 41 42 42 43 44 45 45 45 45 45 45 45 44 44 45 45 47 47 47 47 46 46 46 46 45 45 44 43 42 43 43 43 42 41 41 42
35 37 39 42 45 47 48 46 43 40 38 36 33 28 23 20 21 23 24 25 25 26 27 29 31 33 35 37 39 42 44 45 46 46 46 46 46 46 45 45 45 45 44 44 44 44 44 43 42 42 41 42 43 44 45 45 45 44 44 44 43 43 43 44 44 45 45 46 47 47 46 46 45 45 45 44 43 42 42 43 43 43 43 42 42 42
33 34 36 39 43 46 49 49 47 43 40 38 35 31 26 22 20 21 23 24 25 26 27 29 30 32 34 35 38 40 42 43 45 45 46 46 46 46 45 45 45 45 45 45 44 44 44 43 43 42 42 43 44 44 44 44 43 41 40 40 40 40 41 42 43 44 44 45 46 46 46 45 45 44 44 43 43 42 42 42 43 43 43 42 42 43
31 32 33 35 39 43 47 50 49 47 44 41 39 36 32 27 22 21 22 23 24 25 26 28 29 31 33 35 37 39 40 42 43 44 45 45 45 45 45 45 45 45 45 45 45 45 44 44 43 43 43 43 44 44 43 43 41 40 39 38 37 37 38 39 41 42 43 44 44 45 45 44 44 43 43 43 42 42 42 42 43 43 43 43 43 44
30 30 29 31 34 39 44 48 50 49 47 45 43 41 39 33 27 22 22 23 24 24 25 26 28 30 32 35 37 38 39 40 41 42 43 44 44 45 45 45 45 45 46 46 45 45 45 44 44 44 44 44 44 43 43 42 42 41 40 39 38 37 37 38 39 40 40 41 41 42 43 43 43 43 43 43 42 42 42 43 43 44 44 44 45 45
27 26 26 29 32 35 39 43 47 49 48 47 45 43 41 38 33 26 23 22 23 23 24 25 27 29 32 34 36 37 38 39 40 41 42 43 43 44 44 44 45 45 46 46 46 46 46 45 45 44 44 44 44 43 43 42 43 43 42 41 40 39 38 38 38 39 38 38 38 39 40 41 42 42 42 43 42 42 43 43 44 45 45 45 46 45
24 23 25 29 32 34 36 38 42 46 49 48 47 45 43 40 36 30 26 23 23 23 24 25 26 28 31 33 34 36 37 38 39 40 40 41 42 43 43 44 44 45 46 46 46 46 46 46 45 45 45 45 45 44 43 43 43 43 42 41 41 40 39 39 40 40 39 38 37 38 38 39 40 41 42 43 43 43 44 44 45 46 46 46 45 43
24 24 27 30 33 33 33 34 38 43 48 49 48 46 44 41 37 33 29 25 24 24 24 25 26 28 30 32 33 35 36 37 38 39 39 40 41 41 42 43 43 44 45 46 47 47 47 46 46 46 46 46 46 45 44 44 43 43 41 40 40 39 39 41 42 42 41 40 39 39 39 39 40 41 42 43 43 44 44 45 46 46 47 46 45 42
27 29 31 33 34 33 31 31 34 39 45 48 48 47 44 41 38 35 31 27 26 25 25 26 28 30 31 32 33 34 35 36 36 37 37 37 38 40 41 41 42 43 44 46 46 47 47 47 47 47 47 46 47 47 46 45 43 42 41 40 39 39 40 42 43 43 42 42 42 42 42 41 42 43 43 44 45 45 45 45 46 46 47 46 44 42
30 32 34 34 33 31 30 30 31 35 40 45 47 47 45 42 40 37 33 29 27 27 28 28 30 32 33 34 34 34 34 34 34 34 34 34 36 37 38 39 40 42 43 44 45 46 46 47 47 47 47 47 48 48 47 45 43 41 40 39 39 40 41 42 43 43 42 42 42 43 43 43 43 44 45 45 46 46 46 46 46 47 47 47 46 43
30 32 32 32 31 30 30 30 31 33 38 43 46 48 47 44 41 38 34 29 28 29 30 31 32 34 36 35 35 34 34 33 32 30 31 32 34 35 36 36 37 39 40 41 42 43 43 44 45 45 46 47 48 48 47 45 43 42 41 41 41 41 42 43 44 43 43 42 41 41 41 41 41 43 43 44 45 46 46 46 47 48 48 48 47 46
29 30 30 29 29 29 29 29 30 32 36 40 45 47 47 45 42 38 34 31 30 31 33 34 35 36 37 37 36 35 35 34 32 30 31 34 35 35 34 35 35 36 37 38 38 39 39 40 41 43 44 46 46 46 45 44 44 44 44 44 44 44 44 45 45 45 44 43 42 41 40 41 41 42 42 43 44 44 45 46 47 48 49 49 48 47
29 29 29 29 29 29 29 29 30 31 34 38 42 45 46 45 42 39 36 33 32 33 36 38 39 39 39 38 38 37 36 36 34 33 34 37 38 38 37 37 37 37 38 38 38 38 39 39 40 41 42 43 43 42 41 41 41 42 43 44 45 44 44 44 45 45 44 44 43 43 43 43 43 44 45 45 46 46 47 48 49 49 50 49 48 47
28 28 28 29 29 29 29 30 30 31 33 37 40 43 44 44 43 40 37 35 34 34 35 39 42 44 43 42 40 38 38 37 37 37 38 40 42 42 41 41 41 40 41 41 41 40 41 42 42 42 42 42 41 40 39 39 38 38 39 40 41 41 41 41 41 41 41 41 42 43 43 44 45 47 48 48 49 50 50 51 51 50 49 49 47 46
26 26 27 28 29 29 30 31 31 31 32 35 38 41 43 43 43 41 39 37 35 34 34 40 45 47 46 44 43 41 40 40 40 40 41 43 44 45 45 44 44 43 42 43 43 42 43 43 44 45 46 45 44 43 42 41 40 39 38 38 39 39 40 40 40 40 40 40 41 42 44 45 47 48 48 48 49 49 49 49 48 47 46 45 43 42
23 24 25 26 28 29 30 31 31 31 32 34 37 40 42 43 42 41 40 39 37 35 33 38 44 48 47 46 45 44 42 42 41 41 42 43 44 46 47 47 46 45 44 43 43 43 44 45 46 47 48 48 47 47 46 44 43 42 41 41 41 40 40 41 41 41 41 42 42 43 44 45 45 45 45 44 43 42 41 40 40 39 38 37 35 34
20 21 22 24 26 28 29 30 31 32 33 34 37 39 41 42 42 42 42 41 40 37 34 35 40 46 47 47 46 45 44 43 42 42 42 43 44 46 48 49 48 48 47 45 44 44 44 46 47 47 48 48 48 48 47 45 43 43 42 42 42 42 42 42 42 42 43 43 43 43 42 42 41 41 40 38 36 34 32 31 30 30 29 29 28 28
20 20 21 23 24 26 27 28 30 31 33 35 36 38 39 41 42 42 42 42 42 40 36 34 37 43 47 48 48 47 46 45 43 42 42 43 44 46 48 49 49 49 48 47 45 45 45 46 47 48 48 47 47 46 45 44 43 43 42 42 42 41 41 41 41 41 41 41 40 40 39 39 38 37 37 35 33 31 29 29 28 28 27 27 27 27
22 22 22 23 23 24 24 24 26 28 30 33 35 36 38 39 40 41 42 42 42 41 38 35 37 42 47 48 48 47 46 45 44 43 42 42 43 46 48 49 49 49 48 47 46 46 46 47 47 48 48 48 47 46 45 44 43 42 42 41 40 40 39 39 39 39 38 38 37 36 35 35 35 35 35 35 35 33 32 31 30 29 28 27 27 27
25 24 24 23 23 23 22 22 23 25 26 29 32 34 36 38 39 40 40 41 42 42 41 38 39 42 46 48 47 46 45 45 44 43 43 42 43 45 48 50 50 49 48 47 46 46 47 48 49 49 50 49 49 48 46 45 44 43 41 40 39 38 37 37 37 37 36 35 34 33 32 31 31 32 32 33 33 32 31 30 28 27 25 25 25 26
25 26 25 25 24 24 24 24 24 25 25 27 29 32 34 36 37 38 39 40 41 41 40 40 42 44 47 48 47 46 46 45 44 44 44 43 43 44 47 49 49 48 47 47 46 47 47 48 49 50 50 50 50 49 47 45 43 41 39 38 37 36 35 35 35 35 34 34 32 31 30 29 29 29 29 28 27 26 25 24 23 22 22 22 23 23
25 26 27 26 26 26 26 26 25 26 26 28 29 31 33 35 36 38 39 39 39 39 39 41 44 47 49 49 49 47 46 46 45 45 45 44 43 43 45 46 46 45 45 45 45 46 46 46 47 47 48 48 49 48 47 44 41 38 36 34 33 32 32 31 31 31 31 31 30 29 28 27 26 25 24 23 22 21 20 20 19 19 20 20 21 22
24 26 26 27 27 27 27 26 24 24 25 29 32 33 33 35 36 38 38 39 38 39 40 42 46 48 50 51 50 49 48 48 48 47 47 46 45 44 44 43 42 41 41 42 42 43 43 43 42 42 43 44 44 44 44 41 38 35 33 32 31 30 30 29 29 29 28 28 27 27 26 25 24 23 22 21 20 19 19 19 19 20 20 21 21 22
22 24 26 27 28 28 28 26 24 22 22 27 33 36 36 36 37 38 38 39 40 40 41 43 46 49 51 52 52 51 51 51 50 49 48 47 47 46 45 43 41 40 40 40 40 40 40 39 38 37 38 38 38 38 38 37 35 34 33 32 31 30 30 29 29 28 27 27 26 26 25 24 23 22 21 20 20 20 20 20 21 21 22 22 23 23
20 22 24 26 27 28 28 26 24 22 21 23 30 36 39 39 38 38 38 40 42 43 42 43 46 49 52 54 55 55 54 54 53 50 48 48 48 48 46 44 43 41 40 39 39 40 40 38 36 35 35 34 34 34 34 33 32 31 31 31 31 30 30 29 29 28 27 27 26 25 24 23 23 22 21 21 21 21 21 22 22 23 23 23 23 24
18 20 22 25 26 27 27 27 26 23 21 20 25 33 40 41 40 39 40 42 44 45 43 43 46 50 53 55 57 58 57 56 54 51 49 49 49 48 47 47 45 43 41 40 39 39 40 39 37 36 35 34 33 32 32 31 31 30 30 29 29 29 29 29 28 28 28 27 27 26 25 24 24 23 23 23 22 22 23 23 23 23 23 23 23 23
17 18 20 22 24 26 27 28 27 25 22 19 21 28 40 43 42 41 40 42 44 45 44 43 46 51 55 56 58 59 58 56 54 51 49 49 49 48 48 48 47 46 44 42 40 39 38 37 37 37 36 34 33 32 31 31 30 30 29 29 28 28 28 28 28 28 28 28 27 27 26 26 25 25 24 24 24 23 23 23 23 23 23 23 23 23
16 17 18 19 20 23 26 28 28 27 24 20 18 23 36 43 44 42 41 42 43 45 46 44 46 51 55 56 57 58 57 55 52 50 49 49 49 49 48 49 49 48 46 44 43 40 37 35 34 34 34 34 33 31 30 30 30 29 29 28 28 28 28 28 29 29 29 28 28 27 27 26 26 25 25 24 24 24 24 23 23 23 23 22 22 22
16 16 16 16 17 19 21 25 27 27 26 21 17 19 28 39 44 44 43 44 45 46 48 47 47 49 52 54 54 54 54 52 51 49 49 50 50 50 50 50 50 48 47 46 45 42 38 35 33 31 30 30 30 30 29 29 29 29 28 28 28 28 28 28 29 29 29 28 27 27 26 26 25 25 24 24 24 23 23 23 23 22 22 22 22 22
16 16 16 16 15 15 17 19 22 25 27 24 19 16 20 28 37 43 45 46 48 50 51 51 50 50 51 51 51 50 50 49 48 49 50 51 52 52 51 50 49 47 45 45 45 43 41 38 35 32 29 27 27 28 29 29 29 29 29 29 30 29 29 29 28 28 28 27 27 26 25 25 24 24 24 23 23 23 22 22 22 23 23 23 23 23
14 15 16 16 15 15 15 15 17 21 25 26 23 18 17 20 25 32 39 43 47 49 52 53 53 53 52 52 51 50 49 48 48 49 50 51 51 51 50 48 45 43 41 42 42 42 41 40 37 34 30 28 27 27 28 29 30 30 30 30 30 30 29 29 28 28 27 27 26 26 25 24 24 23 23 22 22 22 22 22 23 23 24 24 24 24
12 14 15 16 15 15 14 14 15 18 22 25 25 22 19 17 19 22 27 33 39 44 49 52 54 56 56 55 54 53 51 50 50 50 50 49 48 47 46 44 41 38 37 37 37 37 38 38 37 35 32 30 28 27 27 29 31 31 31 31 30 30 29 29 28 28 27 27 26 26 25 24 24 23 23 22 22 23 23 23 24 24 25 25 25 26
10 12 14 15 15 15 14 14 14 16 19 23 24 24 23 21 18 17 19 23 28 35 42 48 53 55 56 56 55 54 53 52 51 51 49 48 46 43 42 39 37 35 34 33 32 31 32 33 33 33 32 31 30 29 29 30 32 32 32 31 31 30 30 29 29 28 28 27 27 26 26 25 24 24 24 23 23 24 24 25 25 26 26 26 27 27
9 10 12 14 14 14 13 13 13 15 17 21 23 25 25 24 23 20 18 18 20 25 33 41 47 51 53 54 53 52 50 49 48 47 47 45 43 41 39 37 35 34 33 32 31 30 29 29 29 30 30 30 31 31 32 33 33 33 32 32 32 31 31 30 29 28 28 28 27 27 27 26 26 25 25 25 25 25 26 26 26 26 27 27 27 27
8 8 9 11 12 13 12 12 12 13 16 19 22 23 24 24 25 24 23 20 18 19 23 30 38 43 46 48 48 46 45 43 42 42 42 41 39 38 36 35 34 33 33 33 32 31 30 29 29 29 29 29 30 31 32 33 33 33 32 32 32 31 31 30 29 28 28 28 28 28 28 27 27 27 27 26 27 27 27 27 27 27 27 27 28 28
8 8 8 9 10 11 12 12 12 12 14 17 19 21 22 23 23 24 25 23 21 19 20 22 27 33 37 41 42 42 40 39 39 39 39 38 36 35 34 34 33 32 32 32 33 32 31 31 30 30 30 30 30 31 31 32 32 32 32 32 31 30 29 29 28 28 28 28 28 28 28 28 28 28 28 28 28 28 28 28 28 28 28 28 28 29
9 8 8 8 9 10 11 12 12 12 13 14 16 18 20 21 22 23 24 24 23 21 20 20 22 24 28 33 37 38 38 38 38 38 39 37 36 35 34 33 33 33 32 32 32 32 32 31 31 31 30 30 29 29 30 31 31 31 31 31 31 30 30 30 29 28 28 28 28 28 29 29 30 30 30 30 30 30 29 29 29 29 29 29 29 30
11 10 9 9 9 9 10 11 11 12 12 13 14 16 18 19 21 22 23 23 23 22 21 21 21 21 22 25 29 33 36 37 38 39 39 39 37 36 35 35 34 34 34 33 33 33 33 33 33 32 32 31 31 30 30 31 31 32 32 32 32 32 32 31 30 29 29 29 29 29 30 30 31 31 32 32 32 32 32 31 31 31 31 31 31 30
12 11 10 9 9 9 9 10 11 12 12 13 14 15 16 18 19 21 22 23 24 24 23 22 21 21 21 21 23 26 30 33 36 37 38 38 38 38 38 37 37 37 37 36 36 35 35 36 36 36 35 35 34 34 34 33 33 34 34 34 34 34 33 33 32 31 31 31 30 30 30 30 31 31 32 32 33 33 33 33 33 33 32 32 32 31
13 12 11 11 10 10 9 10 10 11 12 13 14 14 15 17 18 20 22 24 25 26 27 26 24 23 22 22 22 23 25 27 30 31 33 34 36 37 39 39 39 39 39 38 38 38 38 38 38 38 38 38 38 37 36 35 35 35 35 35 35 34 34 33 33 32 32 31 31 30 30 30 30 30 31 31 32 32 33 33 33 33 33 32 32 32
13 13 12 12 11 11 10 10 11 11 12 13 14 14 15 16 18 20 22 24 26 28 29 30 29 28 26 24 24 25 25 26 26 26 27 27 29 32 34 35 36 35 35 35 36 37 37 37 37 37 37 37 37 36 35 34 33 33 33 33 33 33 33 32 32 31 31 30 30 29 29 29 29 30 30 30 30 30 31 32 32 33 33 33 33 33
13 13 13 13 12 12 12 11 11 11 12 13 13 14 15 16 17 19 21 23 26 28 30 32 33 33 32 30 28 27 27 27 26 26 25 25 25 27 28 29 30 30 29 30 31 32 33 34 34 33 33 33 33 32 32 31 30 30 29 29 29 29 29 29 29 29 29 29 29 29 29 30 30 30 30 29 29 30 31 31 32 32 33 33 34 34
12 13 13 13 13 13 13 12 12 12 12 12 13 14 14 15 16 17 19 21 24 27 30 32 34 35 36 36 35 32 30 28 27 26 26 26 26 26 26 27 27 27 26 27 27 28 29 29 30 30 29 29 28 27 27 27 27 27 26 26 26 27 27 28 29 29 29 30 30 30 30 30 30 30 30 29 30 30 31 32 32 33 34 34 35 35
11 12 13 13 13 13 13 13 13 13 13 13 13 14 14 15 15 16 17 19 21 24 27 30 33 35 37 38 39 38 35 31 29 27 26 26 27 27 27 27 26 26 26 26 26 26 26 27 27 27 27 26 25 24 24 24 24 24 24 24 25 26 27 28 29 30 30 30 30 30 30 30 30 30 29 30 30 31 31 32 33 33 34 34 35 35
10 11 12 12 13 13 14 14 14 14 14 14 14 14 14 15 15 15 16 17 18 20 23 27 31 34 36 38 40 40 39 36 31 28 27 26 27 28 28 28 28 27 26 26 25 25 26 26 26 25 25 25 25 25 24 23 24 24 24 25 26 27 28 29 29 29 30 30 30 29 29 29 29 29 29 30 30 31 31 32 32 33 33 33 33 34
Wind_Direction
217 217 217 217 218 219 221 224 227 229 231 233 235 236 238 239 240 240 240 240 241 241 240 240 238 236 233 230 228 227 226 225 224 224 224 224 224 224 225 225 225 225 225 224 224 224 225 225 226 227 228 229 230 231 232 232 232 231 232 232 232 233 233 233 233 234 234 234 234 234 235 235 236 236 237 237 238 238 237 234 233 234 238 242 247 252
217 218 218 220 220 221 222 225 227 230 231 233 234 234 235 237 237 238 238 238 239 240 240 239 239 237 235 232 229 227 226 225 225 224 224 223 223 224 224 225 225 226 225 225 225 225 225 225 225 226 227 228 229 230 230 230 231 231 231 231 231 232 232 233 233 234 234 234 234 234 234 235 235 236 236 237 237 237 236 234 234 236 239 243 246 250
217 217 218 220 221 221 222 225 227 229 230 230 231 231 232 233 234 235 236 236 237 238 238 238 238 237 236 233 230 228 226 225 225 224 224 223 223 223 224 224 225 226 226 226 226 225 225 225 225 225 226 227 228 229 229 230 230 230 230 230 230 231 232 232 232 233 233 233 234 234 234 234 235 235 236 236 237 236 236 236 236 237 239 242 245 248
217 217 217 218 219 220 221 221 223 224 225 225 225 225 225 227 230 233 233 234 234 235 236 236 236 236 235 234 231 229 227 226 225 224 223 223 223 223 223 224 224 225 226 226 226 226 226 225 225 225 226 227 227 228 229 229 229 229 229 229 229 230 231 231 231 231 232 233 233 234 234 234 235 235 236 237 237 237 237 237 237 238 239 241 243 245
217 216 216 216 216 217 218 217 217 217 218 217 216 216 218 221 225 229 231 232 232 233 233 234 234 234 234 233 232 229 227 226 225 224 223 223 223 223 223 223 224 225 225 226 226 226 226 226 226 226 226 226 227 228 228 229 229 229 229 229 229 229 229 229 229 230 231 232 233 234 234 234 235 235 236 237 237 237 237 237 237 237 238 239 240 242
217 216 215 214 214 214 213 212 211 212 211 210 209 209 210 216 221 226 228 229 230 230 230 231 232 233 233 233 232 230 228 226 225 224 223 223 222 222 222 223 223 224 225 225 226 226 226 226 226 226 226 226 227 228 229 229 229 229 229 229 228 228 228 228 228 228 230 231 233 233 234 234 234 235 236 237 237 237 236 236 236 236 236 237 238 240
217 215 214 213 213 212 210 208 207 207 207 206 205 204 205 211 218 222 224 226 227 227 228 230 231 232 233 233 232 231 229 227 226 225 224 223 222 222 222 223 223 224 224 225 225 226 226 226 226 226 226 227 227 228 229 230 230 230 230 229 229 228 228 227 227 227 228 230 232 233 233 234 234 235 235 236 236 235 235 234 233 233 234 235 236 238
217 214 213 212 212 211 209 207 205 205 205 205 204 202 201 207 215 220 222 223 224 226 228 230 231 231 231 232 232 231 229 228 226 225 224 223 222 222 222 222 222 223 223 224 225 225 225 225 225 225 226 227 228 229 229 230 230 230 230 230 229 229 228 227 226 226 227 229 230 231 232 233 234 234 234 234 234 234 233 231 231 231 232 233 235 237
217 213 211 211 211 211 210 208 206 205 205 205 204 203 202 205 213 220 222 222 224 226 227 229 230 230 230 231 231 230 229 228 227 226 225 224 223 222 222 222 222 222 223 224 224 225 225 225 225 225 225 226 227 228 229 229 229 229 228 227 227 227 228 228 228 227 227 228 229 230 231 232 232 232 232 231 231 232 231 230 229 230 232 233 234 236
217 214 212 211 211 211 211 210 208 207 207 206 206 207 207 207 211 218 223 224 225 226 227 229 230 230 230 231 230 230 228 227 226 225 225 224 223 223 222 221 221 222 222 223 224 224 225 225 224 224 224 226 227 228 228 228 227 225 223 223 222 220 220 224 228 230 229 228 229 229 230 230 230 230 229 228 229 229 229 228 229 230 231 233 234 236
219 216 215 214 213 212 212 211 210 209 209 209 210 211 211 211 212 216 222 225 226 226 227 229 230 230 230 230 230 229 228 226 225 224 224 224 223 223 222 222 221 221 222 222 223 224 224 224 224 224 224 225 226 227 227 227 226 224 222 221 219 216 215 220 226 230 230 230 230 229 228 227 226 227 226 226 226 226 226 226 227 229 230 231 233 234
218 218 221 221 219 216 214 212 211 210 210 211 211 213 214 214 214 215 220 225 227 227 227 228 229 229 229 230 229 228 227 225 224 223 223 223 223 223 222 221 221 221 221 221 222 223 224 224 224 224 224 224 225 225 226 227 226 225 224 222 220 218 218 221 223 224 227 229 230 229 227 225 224 224 224 223 223 223 224 225 226 227 229 230 232 232
214 217 224 226 223 220 217 215 213 211 211 211 211 212 213 214 214 215 218 223 226 227 228 228 228 228 228 228 228 227 226 224 223 222 222 223 223 223 222 221 220 220 220 220 221 221 222 222 223 223 223 224 224 224 225 225 226 225 225 223 220 219 219 219 219 218 220 223 226 227 226 224 223 222 222 222 222 222 223 224 225 227 229 230 231 231
213 216 222 226 225 222 219 217 215 212 211 210 210 211 212 213 214 214 216 221 224 225 227 227 227 227 226 224 224 224 224 223 221 220 220 221 223 223 223 222 221 220 220 220 220 220 220 220 221 221 222 223 223 223 223 224 225 225 224 222 219 217 217 215 214 214 216 218 220 221 222 222 222 222 222 222 222 222 223 224 226 228 230 231 232 232
216 217 219 222 223 222 220 219 217 214 212 210 210 210 210 211 213 213 214 218 221 222 222 222 223 224 224 222 221 221 221 221 220 218 217 218 220 222 223 222 221 221 220 220 220 219 219 219 219 219 220 220 221 222 222 223 223 223 222 219 217 216 215 215 214 214 215 216 216 216 216 218 219 220 221 221 222 222 223 225 227 229 231 233 234 234
216 218 219 220 221 220 219 218 217 215 213 211 210 209 210 211 212 212 213 215 218 219 217 211 210 214 218 220 219 218 218 220 219 217 214 213 216 220 222 223 222 222 221 221 220 220 219 218 217 217 217 218 219 220 220 221 220 220 218 216 215 214 215 216 217 218 219 219 219 218 217 217 218 219 220 221 221 222 223 225 227 230 232 234 234 234
217 219 220 221 221 220 218 217 215 214 212 210 209 209 209 210 211 212 212 213 213 213 210 203 201 204 209 214 216 215 215 217 218 215 211 208 210 215 220 222 222 222 221 220 220 219 217 216 215 214 214 216 217 218 218 218 217 216 214 214 214 214 215 217 220 221 223 224 224 224 224 223 223 223 223 223 224 224 224 225 227 229 230 231 231 231
217 219 220 221 221 220 219 217 216 214 212 209 208 208 209 209 210 211 211 210 207 205 203 201 203 206 208 210 213 213 211 211 212 211 208 204 204 207 212 216 217 217 215 213 213 213 211 210 209 210 211 213 215 216 216 216 215 214 214 213 214 216 218 220 222 224 225 226 227 228 228 228 228 229 229 229 229 228 227 227 227 228 228 228 227 227
219 219 220 220 221 220 219 218 216 214 212 209 208 208 208 208 209 210 209 208 206 203 201 201 206 211 213 213 213 212 209 208 208 208 206 202 200 199 201 203 205 205 202 201 200 201 200 200 201 204 208 211 212 214 215 216 216 216 215 215 216 218 220 222 224 226 227 228 230 231 231 231 231 231 231 231 231 231 231 230 229 228 226 225 224 224
220 220 220 221 221 221 220 219 217 215 212 209 208 207 207 207 207 208 207 207 208 207 203 202 206 212 215 215 213 211 208 206 206 205 204 202 199 196 195 195 194 193 192 191 191 192 192 192 194 196 201 205 208 209 211 212 215 217 216 217 217 219 221 223 224 226 228 229 231 231 232 232 231 230 229 230 230 230 230 229 228 227 225 222 220 220
220 220 221 222 223 222 222 220 218 215 213 210 207 206 205 205 206 205 204 205 208 210 208 204 206 211 215 214 212 210 208 206 205 205 204 202 200 198 196 194 192 189 188 187 187 188 190 191 192 193 195 198 201 203 206 208 211 213 214 215 216 218 219 220 222 224 226 227 228 228 228 228 228 227 227 226 226 225 224 223 223 221 220 217 215 215
221 221 221 222 223 224 223 221 219 216 213 210 207 205 204 204 204 204 203 204 208 212 212 207 206 209 213 214 214 212 209 207 206 205 205 205 203 202 200 197 194 191 189 187 187 187 189 191 192 193 195 196 197 199 201 204 205 206 209 211 212 214 215 216 217 218 220 221 222 222 222 222 221 220 220 218 217 215 215 215 215 214 213 213 213 214
223 222 222 222 223 224 223 221 218 216 214 211 208 205 204 203 203 203 203 204 208 213 216 213 209 208 210 213 214 214 212 210 208 206 207 208 208 207 205 202 200 197 193 191 189 188 189 191 193 194 195 197 198 198 199 201 203 205 206 207 208 210 211 212 213 213 214 214 215 215 216 216 216 215 212 211 210 210 212 213 214 215 216 217 219 222
226 225 223 222 222 222 221 219 217 215 213 211 209 206 204 203 204 204 205 206 208 213 219 219 213 209 209 211 213 215 215 214 211 208 208 211 212 211 209 207 205 203 199 197 194 192 192 194 196 197 198 200 201 202 201 202 203 204 205 206 207 208 209 210 210 211 211 211 211 212 213 214 215 215 214 214 217 220 224 226 227 228 228 229 230 231
227 227 225 222 220 218 217 217 218 217 214 212 209 206 204 203 204 205 206 208 210 214 219 222 218 212 208 208 210 213 215 216 214 211 210 212 213 213 213 212 210 207 205 202 200 198 197 199 201 202 203 204 205 205 205 205 205 205 206 206 207 208 210 210 211 212 213 212 212 213 214 215 217 220 222 225 229 232 236 237 237 236 235 234 233 232
226 227 225 221 217 213 213 217 222 223 220 215 210 206 204 203 203 204 206 209 211 214 218 222 221 216 210 208 208 209 213 215 216 215 213 214 213 212 214 214 213 211 209 208 207 205 203 203 205 206 206 207 208 208 209 209 209 209 209 209 209 210 211 212 214 215 217 218 218 219 219 221 223 225 228 231 234 236 238 238 237 236 234 231 228 226
226 226 224 220 214 211 212 219 226 229 228 223 215 209 205 203 203 204 206 208 210 213 216 220 220 217 212 209 207 207 209 212 215 216 216 216 214 211 211 213 213 212 212 212 212 212 210 209 208 208 208 208 208 209 210 210 211 211 210 210 210 211 212 213 214 216 218 219 221 222 223 223 224 226 228 229 230 231 231 230 228 227 225 222 220 218
225 225 223 220 214 211 215 224 230 232 230 227 222 215 208 204 202 203 206 207 208 210 213 217 217 215 211 209 208 207 208 210 213 215 216 217 216 213 212 211 211 211 211 212 214 215 215 214 213 212 210 208 208 207 207 206 206 205 205 205 206 206 207 208 209 211 213 214 216 217 217 217 217 217 218 218 217 216 215 213 212 212 212 212 211 212
223 224 223 220 216 214 217 226 234 235 230 226 223 219 212 206 203 204 205 205 206 208 211 213 213 211 210 209 208 208 208 209 211 213 214 215 216 216 216 214 213 212 212 212 213 214 215 215 213 211 210 209 208 207 205 201 198 195 195 196 197 198 199 200 201 202 203 204 205 205 206 206 205 205 205 205 205 204 203 203 204 205 206 208 209 211
221 222 223 222 219 217 219 226 233 235 228 219 218 218 216 210 206 204 203 203 205 207 210 209 208 208 209 209 208 208 208 209 210 211 212 213 215 217 218 219 220 220 219 216 214 212 210 209 208 206 206 207 208 207 206 203 198 195 193 192 192 193 193 193 194 193 194 194 194 195 196 196 197 199 200 201 202 202 203 204 205 206 208 209 211 213
217 219 222 223 223 222 221 225 228 227 218 209 209 212 215 212 208 204 203 203 205 208 210 206 203 204 207 209 208 207 207 208 209 210 211 212 214 217 218 220 222 225 225 223 219 213 208 206 204 204 205 206 207 207 208 208 207 204 202 199 196 195 194 193 191 190 190 189 189 190 191 193 196 198 201 203 204 205 206 207 208 209 211 213 214 215
213 216 219 222 224 224 224 225 224 220 210 201 200 203 208 210 208 205 203 203 206 210 211 205 200 200 203 207 208 208 207 207 208 209 210 212 214 216 217 219 221 223 224 225 224 220 215 212 210 209 208 209 210 211 212 212 213 214 214 211 208 205 201 197 194 192 190 189 189 190 191 194 197 199 202 204 206 208 209 210 212 213 214 216 217 218
211 212 215 218 220 222 222 223 221 216 207 201 197 197 199 203 205 204 203 205 208 211 212 207 200 197 199 204 207 208 208 207 207 209 211 212 213 215 216 218 219 219 219 220 222 223 224 222 221 218 216 216 215 215 216 216 216 217 218 218 217 215 210 204 199 194 191 190 190 191 193 195 198 200 203 205 207 210 212 213 215 217 218 220 221 222
214 212 212 214 216 217 217 217 216 213 208 203 197 191 191 194 198 202 203 206 209 211 214 211 203 197 197 201 204 206 207 207 208 210 213 214 215 215 215 216 217 217 216 217 218 220 223 226 227 226 223 221 218 216 215 214 213 213 214 215 215 213 210 204 198 194 192 191 192 193 195 197 198 201 203 206 209 211 213 216 218 220 222 223 225 226
220 216 214 214 214 214 212 210 209 209 207 203 193 182 181 186 192 197 202 206 208 211 213 212 206 200 198 200 203 205 206 208 210 213 215 216 216 215 215 214 214 213 214 216 217 218 219 223 227 228 227 222 218 215 212 209 207 205 205 205 204 203 200 197 194 192 192 192 194 196 197 198 200 202 205 207 210 212 215 218 220 222 224 226 228 229
224 222 220 218 217 217 213 208 204 203 204 202 192 174 166 175 184 192 198 203 206 208 210 210 207 203 201 202 204 207 209 211 214 216 217 216 214 212 210 209 209 209 210 214 218 220 220 222 224 226 227 225 220 215 210 205 202 199 199 197 196 194 193 193 193 193 193 194 196 198 199 200 202 204 206 209 211 214 216 219 222 225 227 229 230 231
224 224 223 222 221 220 219 213 205 200 199 200 196 183 164 160 169 181 190 196 200 201 202 203 203 203 203 205 207 210 213 215 216 217 216 213 210 207 204 204 204 205 208 213 217 221 222 223 222 222 223 223 221 215 208 203 199 197 197 196 194 192 192 193 194 196 196 197 199 200 201 202 203 206 208 210 213 215 218 221 224 226 229 230 232 233
221 222 223 223 223 222 221 218 210 201 197 197 197 193 182 168 161 166 176 186 192 195 195 196 197 200 202 205 208 210 213 214 214 214 212 208 205 201 200 199 200 202 207 212 217 220 223 223 220 217 215 215 214 212 207 202 198 197 196 195 194 194 194 194 196 197 199 200 201 202 202 203 205 207 209 211 214 217 220 223 225 228 230 232 234 235
217 219 221 222 223 222 221 219 214 206 198 196 195 196 195 191 182 172 168 174 183 189 192 193 194 196 198 201 204 207 209 210 210 209 206 203 200 198 197 196 197 198 202 206 211 215 217 218 216 213 208 206 205 204 203 200 198 196 196 194 194 194 195 196 197 198 200 201 202 203 204 205 207 208 211 213 215 218 221 224 226 229 231 233 236 237
213 214 216 218 218 218 216 216 214 209 203 198 196 196 198 199 199 195 186 177 176 182 189 193 194 195 196 198 200 202 205 206 205 203 200 198 196 194 194 193 193 194 196 197 200 203 206 208 208 207 205 202 200 199 198 197 196 195 194 193 194 194 195 196 197 199 201 202 204 205 206 207 209 210 212 214 216 219 222 225 227 229 232 235 237 239
209 208 208 211 212 212 211 212 212 211 207 202 200 198 198 199 200 201 201 194 184 179 182 189 193 195 196 197 199 200 202 203 202 200 197 195 193 192 191 191 191 192 191 192 193 195 197 199 199 199 200 200 199 198 197 195 194 193 193 193 195 195 196 196 198 200 203 204 205 207 208 209 211 212 214 216 218 221 223 226 229 231 234 237 240 242
207 204 200 202 204 205 206 208 208 208 206 204 202 201 200 199 198 199 201 200 195 188 182 183 188 192 195 197 199 201 202 203 201 199 197 195 193 191 191 191 191 192 191 191 191 192 193 195 195 196 197 198 198 197 196 195 194 193 194 195 196 197 197 198 200 202 205 207 208 209 211 212 214 215 217 219 220 223 225 228 231 234 237 240 242 244
211 206 201 199 199 199 200 202 203 203 202 200 199 199 200 199 197 196 196 195 195 192 189 185 185 188 192 195 197 200 202 203 202 200 197 195 193 191 190 190 191 192 193 192 191 191 191 192 193 195 196 197 198 198 197 196 196 196 196 197 198 199 200 202 203 205 207 209 211 213 214 216 217 219 220 221 223 225 227 229 232 235 238 240 243 245
213 209 205 200 197 196 196 196 197 197 197 195 193 194 195 197 196 193 190 188 188 189 190 189 187 186 187 190 194 197 200 202 202 202 200 197 194 191 190 189 191 192 193 193 192 192 192 192 193 194 196 197 199 200 201 200 200 200 201 201 202 202 204 205 206 207 210 212 214 216 218 220 221 222 223 225 226 227 229 231 233 236 238 240 242 244
213 210 207 202 197 193 190 189 190 191 191 190 188 188 190 192 192 190 187 184 184 185 187 189 190 188 186 186 188 191 195 198 201 202 202 201 198 195 192 191 191 192 192 193 193 194 194 195 196 196 196 198 199 201 203 204 204 205 206 206 207 207 208 209 209 211 213 215 217 219 221 222 224 225 226 227 228 230 231 233 234 236 238 240 241 243
214 213 210 205 200 195 190 187 185 184 184 185 185 185 186 188 189 189 188 186 185 185 187 189 190 190 189 187 186 186 188 190 193 196 198 200 200 199 197 195 194 193 193 193 194 195 196 198 199 199 199 199 201 202 203 204 206 207 209 209 210 211 212 212 212 213 214 216 218 219 221 222 223 225 227 228 230 231 233 234 236 238 239 241 242 244
215 214 212 209 205 200 195 190 186 182 180 180 181 182 183 185 187 188 189 189 189 188 189 189 190 190 190 189 188 187 186 186 186 187 189 191 194 196 197 196 194 193 192 192 192 194 195 197 199 200 201 201 202 202 202 203 204 206 207 209 210 211 212 212 212 212 213 215 216 218 219 221 223 225 227 229 231 233 234 236 238 240 241 243 244 245
214 214 213 211 208 204 200 195 189 184 180 178 178 179 180 182 184 187 189 190 191 192 192 191 190 190 189 190 190 189 189 188 188 187 187 188 188 190 191 191 190 189 187 188 188 190 192 194 196 197 199 200 201 202 201 201 201 202 203 205 206 207 208 209 209 210 211 213 215 217 219 222 224 227 230 232 234 236 238 240 241 243 244 246 247 248
213 213 212 211 210 207 204 200 195 189 184 181 179 178 178 180 182 184 187 190 192 194 195 194 192 191 190 189 189 189 189 190 191 191 191 191 191 190 190 190 189 189 189 189 190 190 191 192 194 195 196 198 199 200 201 201 201 201 202 203 204 206 207 208 209 210 212 215 217 220 222 225 228 231 234 237 239 241 243 244 245 247 248 249 250 252
212 212 211 211 210 209 207 204 200 195 191 187 183 181 179 179 180 182 184 187 190 194 196 196 195 193 191 191 190 188 187 188 190 191 192 192 192 192 192 191 192 192 193 194 193 193 194 194 194 195 195 195 196 197 198 198 199 199 199 201 204 206 208 209 211 213 216 218 221 223 226 229 232 235 238 240 243 244 246 247 248 249 250 251 253 254
213 212 212 211 210 210 209 207 204 201 197 193 189 186 183 182 181 181 182 184 187 190 193 195 196 195 193 193 192 190 188 186 186 187 189 189 189 189 190 190 191 192 193 193 193 193 194 194 193 194 195 196 195 195 194 194 194 195 196 199 203 206 209 210 212 215 217 220 223 226 228 231 234 237 240 243 245 246 248 249 249 250 251 252 253 254